Regional Weather Roundup
Issued by NWS

Home | Current Version | Previous Version | Graphics & Text | Print | Product List | Glossary On
Versions: 1 2 3 4 5 6 7 8 9 10 11 12 13 14 15 16 17 18 19 20 21 22 23 24 25 26 27 28 29 30 31 32 33 34 35 36 37 38 39 40 41 42 43 44 45 46 47 48 49 50
000
ASUS43 KLSX 221110
RWRMO

WEATHER SUMMARY FOR MISSOURI
NATIONAL WEATHER SERVICE SPRINGFIELD MO
500 AM CST WED FEB 22 2017

NOTE: "FAIR" INDICATES FEW OR NO CLOUDS BELOW 12,000 FEET WITH NO
       SIGNIFICANT WEATHER AND/OR OBSTRUCTIONS TO VISIBILITY.
       CURRENT SKY AND/OR WEATHER CONDITIONS ARE NOT AVAILABLE FOR
       CHILLICOTHE AND FARMINGTON.

MOZ001>031-035>038-043-044-053-054-221200-
...NORTHERN AND WESTERN MISSOURI...

CITY           SKY/WX    TMP DP  RH WIND       PRES   REMARKS
KANSAS CTY INT CLEAR     48  37  65 S10       29.80S
KANSAS C DTWN  CLEAR     51  40  65 SW3       29.81R
LEE`S SUMMIT   CLEAR     50  45  83 SW9       29.82S
ST JOSEPH      CLEAR     43  34  70 S7        29.78F
CHILLICOTHE      N/A     46  43  89 S3        29.81F
KIRKSVILLE     FOG       50  49  96 SW6       29.82R VSB 1/4

$$
MOZ066>068-077>081-088>096-101>105-221200-
...SOUTHWEST MISSOURI...

CITY           SKY/WX    TMP DP  RH WIND       PRES   REMARKS
SPRINGFIELD    FOG       54  54 100 S7        29.89R VSB 1/4
JOPLIN         CLEAR     51  51 100 SE7       29.87S
BRANSON        CLOUDY    54  54 100 CALM      29.91R FOG

$$
MOZ032>034-039>042-045>050-055>058-069>072-221200-
...CENTRAL MISSOURI...

CITY           SKY/WX    TMP DP  RH WIND       PRES   REMARKS
COLUMBIA       FOG       50  50 100 S7        29.86R VSB 1/4
JEFFERSON CITY FOG       49  49 100 E5        29.87R VSB 1/4
ROLLA          FOG       54  54 100 SW8       29.87R VSB 1/4
SEDALIA        CLEAR     53  52  96 S8        29.85S FOG
WHITEMAN AFB   FOG       50  50 100 S8        29.83S VSB 1/2
WARRENSBURG    CLEAR     46  45  93 S7        29.83S
OSAGE BEACH    LGT RAIN  54  54 100 S6        29.89R VSB 1/4

$$
MOZ051-052-059>065-221200-
...EAST CENTRAL MISSOURI...

CITY           SKY/WX    TMP DP  RH WIND       PRES   REMARKS
ST LOUIS INTL  PTCLDY    50  47  89 CALM      29.88R FOG
SPIRIT OF STL  FOG       51  51 100 CALM      29.87R VSB 1/4
ST CHARLES     FOG       53  53 100 CALM      29.87R VSB 1/4

$$
MOZ072>076-082>087-097>100-106>115-221200-
...SOUTH CENTRAL AND SOUTHEAST MISSOURI...

CITY           SKY/WX    TMP DP  RH WIND       PRES   REMARKS
CAPE GIRARDEAU CLOUDY    56  54  93 CALM      29.89F FOG
FARMINGTON     CLOUDY    57  55  93 SW6       29.89S
POPLAR BLUFF   CLOUDY    58  58 100 CALM      29.88F FOG
WEST PLAINS    FOG       54  53  97 CALM      29.90S VSB 1/2

$$




USA.gov is the U.S. government's official web portal to all federal, state and local government web resources and services.